Vorticity
nan nan nan nan nan nan nan nan nan nan nan nan nan nan nan nan nan nan nan nan nan nan nan nan nan nan nan nan nan nan nan nan nan nan nan nan nan nan nan nan nan nan nan nan nan nan nan nan nan nan nan nan nan nan nan nan nan nan nan nan nan nan nan nan nan nan nan nan nan
nan 17 16 13 11 10 10 10 10 9 8 8 10 10 10 10 10 10 10 9 8 8 8 10 10 10 11 13 13 12 11 10 9 8 10 13 12 8 5 6 8 8 8 9 7 6 10 10 5 4 6 10 11 10 8 11 13 14 14 7 4 9 12 11 11 12 10 7 nan
nan 17 17 16 14 11 10 10 9 8 7 8 9 9 10 10 10 11 10 9 7 7 8 10 13 15 16 16 13 13 12 12 9 6 6 9 11 8 4 6 9 8 8 8 6 5 9 10 6 6 7 10 11 9 9 12 14 13 14 6 2 7 10 12 13 10 8 11 nan
nan 13 15 16 15 14 12 11 10 10 10 10 10 10 10 10 10 10 10 10 10 9 9 9 13 17 19 18 16 13 12 13 12 8 6 7 9 7 5 6 9 10 10 10 8 7 8 6 4 7 11 12 11 9 10 14 14 10 10 8 7 10 9 10 10 9 9 13 nan
nan 10 12 13 14 14 13 11 11 12 12 12 11 10 10 9 9 9 10 11 11 10 10 11 14 16 17 17 16 14 13 12 11 10 10 10 10 9 8 8 9 10 11 11 11 9 9 3 1 8 12 12 11 13 16 15 12 8 7 10 12 11 10 9 9 10 11 13 nan
nan 9 10 11 12 13 13 12 12 12 12 11 9 8 7 7 7 7 7 7 8 9 11 14 15 15 16 16 15 14 14 13 12 12 13 12 13 14 13 11 10 10 11 12 12 10 7 1 1 8 12 13 14 16 18 13 8 8 7 9 10 11 11 11 11 12 14 14 nan
nan 8 9 10 11 12 13 12 13 13 12 11 11 9 7 5 4 5 6 6 8 10 12 15 14 13 14 15 14 13 12 12 14 14 14 13 15 16 15 14 12 10 11 12 11 10 8 3 2 8 11 11 13 16 15 10 9 9 9 8 8 10 12 11 11 14 18 17 nan
nan 8 8 9 10 11 11 12 13 12 11 11 11 11 9 7 7 7 9 11 13 14 13 14 14 13 12 13 13 13 12 11 12 14 14 14 15 15 14 13 13 11 11 11 11 10 7 5 7 10 9 8 11 14 15 13 10 9 9 8 8 10 11 12 13 15 19 16 nan
nan 7 8 9 9 9 10 12 13 12 10 9 9 10 12 12 11 11 12 13 16 17 17 16 16 15 13 12 11 11 11 12 12 12 12 13 13 12 10 11 12 11 10 11 12 10 4 4 9 11 11 10 13 15 16 14 10 9 7 7 10 11 12 13 15 15 16 14 nan
nan 8 9 9 8 9 10 12 14 14 13 12 11 11 12 12 12 12 13 14 16 18 19 18 17 16 14 12 11 11 10 11 11 11 9 10 11 9 8 10 12 10 10 11 12 10 5 4 10 12 12 13 16 15 15 13 11 8 5 8 14 14 12 13 14 14 13 13 nan
nan 10 10 8 7 10 11 14 16 15 15 14 14 13 13 13 13 14 15 16 17 17 17 17 17 15 13 13 13 12 10 9 10 10 9 9 9 9 9 11 12 11 11 10 9 9 7 8 12 12 11 13 13 13 13 12 10 9 7 12 16 13 11 10 10 10 11 13 nan
nan 11 11 9 9 10 12 14 14 14 13 14 15 16 17 16 17 18 19 19 17 15 15 16 16 14 13 13 14 13 12 10 10 9 9 10 11 11 11 11 12 12 11 10 8 8 10 12 12 12 10 9 9 12 15 13 9 9 10 13 12 11 11 9 6 7 11 14 nan
nan 11 11 11 11 12 13 13 13 12 11 12 14 16 17 17 19 19 18 16 14 13 13 15 15 14 13 14 14 13 13 12 11 10 11 12 12 12 12 12 11 10 9 9 9 10 12 14 13 11 9 7 10 14 16 13 10 10 11 11 10 10 11 9 6 8 12 13 nan
nan 11 12 12 14 15 15 13 13 11 10 11 13 14 15 15 16 15 14 12 12 12 12 13 13 14 15 16 15 14 14 14 13 12 11 12 13 13 12 12 11 8 8 9 12 13 14 15 13 11 10 9 12 14 14 12 12 12 11 11 10 10 10 9 8 9 10 10 nan
nan 11 12 13 15 15 15 14 14 11 10 11 13 14 15 14 13 13 13 12 10 9 10 11 11 13 16 17 16 15 15 15 15 14 13 13 14 14 13 13 12 9 8 10 12 14 15 15 14 12 12 11 12 12 12 12 13 13 13 12 11 10 10 9 9 9 9 8 nan
nan 11 12 13 14 15 14 15 14 12 11 12 13 14 15 14 13 14 15 13 10 10 11 11 9 11 13 16 17 15 14 14 14 14 13 13 14 14 13 13 11 9 9 9 11 12 14 15 15 14 14 13 12 12 12 12 13 14 14 13 12 12 11 10 10 10 9 8 nan
nan 11 12 13 14 15 15 16 14 13 14 14 15 15 14 13 13 14 15 14 14 14 15 12 9 10 11 13 14 13 12 12 12 12 12 12 13 13 12 11 10 10 9 9 10 11 12 14 15 15 14 14 13 12 12 12 13 14 14 13 13 12 11 10 9 9 8 8 nan
nan 11 12 12 13 14 15 17 16 15 15 16 16 15 14 14 14 14 14 15 17 17 16 12 11 11 11 11 10 12 12 12 12 13 13 12 12 12 12 11 11 11 11 11 11 11 11 12 13 13 12 12 12 12 12 12 13 13 12 12 12 11 10 8 7 7 8 9 nan
nan 11 11 11 12 14 15 16 16 16 15 15 15 15 14 15 16 16 15 15 16 16 15 13 13 13 12 11 10 12 13 13 14 14 14 14 13 13 13 13 13 14 13 13 12 12 12 12 12 12 11 10 11 12 12 11 11 10 10 9 9 9 8 7 6 7 9 11 nan
nan 10 10 11 12 14 15 15 15 15 15 14 13 14 13 14 15 16 15 15 15 15 14 13 13 13 13 12 12 12 12 13 14 14 14 14 14 13 13 13 13 13 14 13 12 12 12 12 11 11 10 11 11 11 10 10 9 9 7 7 8 8 8 7 8 9 11 12 nan
nan 11 11 12 13 15 16 16 15 14 13 13 12 12 13 13 14 14 15 14 14 14 13 13 14 13 13 13 12 11 11 13 13 12 12 13 13 13 12 12 12 12 12 13 12 11 11 11 11 10 10 10 10 9 8 8 8 8 6 7 9 9 9 9 10 10 11 11 nan
nan 12 12 13 15 16 16 15 14 13 12 12 11 12 12 12 12 13 14 13 13 12 12 11 12 13 13 12 11 11 12 13 12 12 12 13 12 12 12 12 12 11 11 10 10 9 9 10 11 10 10 9 9 9 9 8 7 7 7 9 9 9 8 8 8 8 10 11 nan
nan 14 14 13 13 15 15 14 13 12 12 12 12 12 11 11 11 12 13 13 13 12 11 9 10 12 13 14 13 13 13 14 13 13 14 14 13 11 10 10 9 8 7 6 8 8 8 8 9 9 9 9 9 8 8 7 7 7 8 8 7 7 7 7 8 9 11 11 nan
nan 16 16 13 12 13 13 13 12 12 12 11 12 11 11 11 10 11 12 13 13 13 13 13 11 11 12 13 13 13 13 12 13 13 13 12 10 9 7 7 6 5 5 9 13 12 10 8 8 8 7 7 7 7 8 8 8 8 8 7 6 6 6 8 9 10 10 10 nan
nan 15 16 15 13 13 13 13 12 12 11 11 11 11 10 10 11 11 11 12 12 13 13 14 12 11 10 10 10 10 10 10 10 9 8 7 7 7 6 6 6 7 10 18 20 16 12 11 11 10 8 7 8 8 8 9 10 10 9 7 6 6 6 6 7 7 8 7 nan
nan 13 14 14 13 13 13 12 12 11 11 11 11 11 11 10 10 11 11 11 11 10 10 10 11 10 10 9 10 9 9 8 8 8 7 7 7 7 7 8 8 10 16 23 20 14 11 12 12 11 10 9 9 8 8 8 10 10 10 9 8 7 7 6 5 6 6 7 nan
nan 13 13 13 13 12 12 12 11 11 11 11 11 11 12 12 11 10 10 10 9 9 8 8 9 8 7 8 9 10 9 10 9 9 9 10 9 9 8 9 10 15 23 24 16 11 9 10 10 11 11 11 11 10 9 9 8 7 7 8 8 8 8 7 6 6 7 8 nan
nan 13 12 12 12 12 12 12 12 11 11 11 11 11 11 12 12 11 10 9 8 7 7 7 6 6 7 9 9 9 10 11 10 9 10 11 10 9 8 10 15 21 26 22 13 10 9 9 9 9 10 11 9 8 8 8 6 5 6 6 7 8 8 7 7 7 8 9 nan
nan 12 12 12 11 11 11 11 11 11 10 10 10 10 10 10 9 9 9 9 9 9 8 8 9 11 12 12 10 9 8 9 9 10 11 11 10 10 11 14 17 22 23 17 11 10 10 10 8 8 8 10 10 9 7 7 7 7 7 7 8 9 9 9 10 10 9 9 nan
nan 12 11 11 11 11 11 11 11 10 10 9 9 9 9 9 9 9 9 9 10 11 13 15 16 16 15 13 11 10 9 9 10 11 12 12 12 13 14 16 18 20 20 16 12 12 11 10 9 8 7 9 11 11 10 10 10 10 9 10 11 11 11 11 11 11 11 10 nan
nan 12 11 10 10 11 11 11 11 11 11 11 10 10 10 10 10 10 11 11 12 13 15 17 17 16 14 12 12 12 12 12 13 13 13 12 12 13 15 16 18 19 18 15 13 13 12 11 10 9 8 8 10 11 12 12 11 12 12 13 12 11 10 9 10 11 11 10 nan
nan 12 11 10 10 10 10 10 10 10 11 11 11 11 11 11 11 11 12 12 12 12 13 13 13 12 12 12 12 13 13 14 14 15 15 14 13 13 12 12 13 15 16 14 12 12 11 10 10 9 9 9 10 11 12 11 10 11 12 12 12 11 11 11 10 10 10 10 nan
nan 11 11 10 10 10 10 10 10 10 10 10 11 11 11 11 11 11 11 11 10 10 10 10 10 10 10 10 10 11 11 12 13 14 15 13 12 11 9 7 7 10 13 11 11 11 10 10 9 8 7 7 7 8 10 11 10 10 10 10 9 10 10 11 11 10 9 9 nan
nan 11 10 10 10 10 10 11 11 10 10 11 11 11 11 11 11 11 11 11 11 10 9 9 9 9 9 10 11 11 11 12 12 11 11 9 9 9 9 9 10 10 12 10 10 10 9 9 7 6 4 3 5 8 10 11 12 12 11 10 9 9 9 9 9 9 9 9 nan
nan 11 11 10 10 11 11 11 11 11 11 10 10 11 11 11 11 11 11 12 12 11 10 10 10 10 11 12 12 12 12 12 11 10 9 9 8 8 9 12 14 12 11 9 9 9 8 7 6 4 2 2 6 8 9 9 10 11 11 10 9 9 9 8 8 8 8 8 nan
nan 12 11 11 11 11 11 11 11 10 10 10 10 10 11 11 10 10 10 10 10 11 11 10 10 11 11 11 11 10 11 12 11 9 8 8 8 7 7 9 10 9 8 9 9 8 8 7 5 3 2 3 7 9 8 7 8 9 9 9 9 9 8 8 8 8 8 7 nan
nan 12 12 11 10 10 10 10 10 9 9 9 10 9 9 9 9 9 10 9 9 9 9 9 9 9 9 10 9 10 11 12 10 9 7 6 6 7 7 7 7 6 6 8 9 8 8 7 4 2 1 5 9 9 8 7 8 9 8 7 7 7 7 7 7 7 7 7 nan
nan 12 11 10 10 9 9 9 8 8 8 9 9 9 9 9 8 9 10 10 10 9 8 8 8 8 8 9 8 9 10 11 10 9 8 7 8 8 8 7 7 7 8 9 9 9 8 7 4 3 3 6 8 8 7 8 9 9 7 6 6 7 7 7 6 6 6 7 nan
nan 11 10 10 9 9 9 9 8 9 9 9 9 9 10 10 9 9 9 10 10 9 8 8 9 9 8 8 8 8 8 9 9 10 10 10 10 9 8 7 9 10 12 11 10 9 8 6 4 3 3 5 7 7 8 9 10 9 8 7 6 6 6 7 7 7 7 7 nan
nan 10 11 11 11 11 10 10 10 11 10 9 9 9 10 10 11 10 9 10 10 9 8 7 8 9 9 7 7 7 7 8 9 11 12 13 11 10 8 9 12 13 14 12 11 10 9 7 5 3 3 5 8 8 9 9 9 9 8 7 7 7 6 7 7 7 7 7 nan
nan nan nan nan nan nan nan nan nan nan nan nan nan nan nan nan nan nan nan nan nan nan nan nan nan nan nan nan nan nan nan nan nan nan nan nan nan nan nan nan nan nan nan nan nan nan nan nan nan nan nan nan nan nan nan nan nan nan nan nan nan nan nan nan nan nan nan nan nan
CAPE
nan nan nan nan 7 7 345 688 684 684 899 1126 1086 1049 1049 1140 1053 979 979 1039 1057 1052 1052 1052 935 852 852 777 500 500 193 52 12 nan nan nan nan nan nan nan nan nan nan nan nan nan nan nan nan nan nan 0 0 nan nan nan nan nan nan nan nan nan nan nan nan nan nan nan nan
nan nan nan nan nan nan 99 481 747 747 803 989 1079 1250 1250 1240 1191 1148 1148 1136 1119 1107 1107 1099 1022 974 974 805 554 554 200 44 6 nan nan nan nan nan nan nan nan nan nan nan nan nan nan nan nan nan 0 1 1 1 1 0 nan nan nan nan nan nan nan nan nan nan nan nan nan
nan nan nan nan nan nan 50 293 630 630 808 962 1121 1179 1179 1171 1262 1249 1249 1205 1189 1136 1136 1055 1115 1034 1034 732 549 549 214 47 7 nan nan nan nan nan nan nan nan nan nan nan nan nan nan nan 0 0 2 1 1 1 1 1 1 0 0 nan nan nan nan nan nan nan nan nan nan
nan nan nan nan nan nan 26 177 489 489 692 877 1161 1150 1150 1279 1266 1253 1253 1209 1194 1141 1141 1089 1076 767 767 493 325 325 231 40 3 nan nan nan nan nan nan nan 1 nan nan nan nan nan nan 0 2 2 1 0 1 1 1 0 1 0 0 nan nan nan nan 0 0 0 0 nan nan
nan nan nan nan nan nan nan 43 264 264 611 820 1040 1099 1099 1159 1208 1228 1228 1119 1103 1119 1119 1198 1013 598 598 413 252 252 180 48 nan nan nan nan nan nan nan nan 1 2 2 nan nan nan 0 2 1 1 0 1 3 3 3 1 0 0 0 nan 1 1 1 0 nan nan nan nan nan
nan 5 5 12 8 8 0 1 41 41 239 655 858 953 953 1017 1125 1208 1208 1160 1147 1298 1298 1080 809 585 585 432 269 269 173 64 2 nan nan nan nan nan nan nan nan 0 0 nan nan nan nan 1 1 1 1 4 3 1 1 2 0 nan nan nan 0 2 2 nan nan nan nan nan nan
nan nan nan 15 36 36 39 38 42 42 84 259 612 828 828 980 1121 1232 1232 1217 1234 1382 1382 1041 823 612 612 444 322 322 211 95 37 8 8 nan nan nan nan nan nan nan nan nan nan nan nan 0 1 1 1 1 2 2 2 3 0 0 0 nan 0 nan nan nan nan nan nan nan nan
nan nan nan 2 33 33 82 123 109 109 98 132 343 660 660 926 1090 1145 1145 1256 1364 1314 1314 1054 905 647 647 431 316 316 238 131 36 nan nan nan nan nan nan nan nan nan nan nan nan nan nan nan nan nan 1 1 0 0 0 0 0 0 0 1 0 nan nan nan nan nan nan nan nan
nan nan nan 0 22 22 72 162 268 268 195 151 275 494 494 775 991 1095 1095 1328 1468 1146 1146 943 812 579 579 407 286 286 230 99 nan nan nan nan nan nan nan nan nan nan nan nan nan nan nan nan 0 0 1 0 0 0 0 nan nan 0 0 1 0 nan nan nan nan nan nan nan nan
nan nan nan nan 20 20 51 125 281 281 412 388 414 497 497 581 865 1003 1003 1246 1158 965 965 858 677 484 484 358 230 230 146 15 nan nan nan nan nan nan nan nan nan nan nan nan nan nan nan nan 0 0 0 0 1 0 0 nan nan nan nan 0 nan nan nan nan nan nan nan nan nan
nan nan nan nan 13 13 39 128 226 226 398 515 545 616 616 596 848 1016 1016 1073 901 740 740 683 536 391 391 295 213 213 86 nan nan nan nan nan nan nan nan nan nan nan nan nan nan nan nan 0 0 0 0 1 nan nan nan nan nan nan nan nan nan nan nan 1 1 1 nan nan nan
nan nan nan nan 6 6 44 133 229 229 341 485 548 674 674 844 1019 1011 1011 975 747 498 498 454 335 257 257 186 88 88 1 nan nan nan nan nan nan nan nan nan nan nan nan nan nan nan nan 0 0 0 0 0 nan nan nan nan nan nan nan nan nan nan nan 0 0 0 nan nan nan
nan nan nan nan 5 5 48 127 219 219 304 424 552 685 685 934 944 792 792 715 521 249 249 248 202 117 117 59 nan nan nan nan nan nan nan nan nan nan nan nan nan nan nan nan nan nan nan nan nan nan nan nan nan nan nan nan nan nan nan nan nan nan nan nan nan nan nan nan nan
nan nan nan nan 1 1 50 109 169 169 246 365 512 664 664 795 666 552 552 411 200 104 104 56 49 30 30 0 nan nan nan nan nan nan nan nan nan nan nan nan nan nan nan nan nan nan nan nan nan nan nan nan nan nan nan nan nan nan nan nan nan nan nan nan nan nan nan nan nan
nan nan nan nan 1 1 41 95 135 135 216 319 471 590 590 631 535 510 510 250 41 9 9 4 nan nan nan nan nan nan nan nan nan nan nan nan nan nan nan nan nan nan nan nan nan nan nan nan nan nan nan nan nan nan nan nan nan nan nan nan nan nan nan 0 nan nan nan nan 0
nan nan nan nan nan nan 24 80 140 140 208 317 425 464 464 488 398 373 373 130 nan nan nan nan nan nan nan nan nan nan nan nan nan nan nan nan nan nan nan nan nan nan nan nan nan nan nan nan nan nan nan nan nan nan nan nan nan nan nan nan nan 0 0 1 1 1 0 1 0
nan nan nan nan nan nan 13 51 130 130 282 301 267 214 214 109 31 4 4 nan nan nan nan nan nan nan nan nan nan nan nan nan nan nan nan nan nan nan nan nan nan nan nan nan nan nan nan nan nan nan nan nan 0 0 0 1 nan 0 0 1 2 3 3 5 4 4 1 1 nan
nan nan nan nan nan nan nan 1 6 6 5 2 2 0 0 nan nan nan nan nan nan nan nan nan nan nan nan nan nan nan nan nan nan nan nan nan nan nan nan nan nan nan nan nan nan nan 1 1 2 2 1 1 1 1 1 1 3 4 4 3 4 4 4 3 1 1 0 nan 1
nan nan nan nan nan nan 0 3 3 3 0 nan nan nan nan nan nan nan nan nan nan nan nan nan nan nan nan nan nan nan nan nan nan nan nan nan nan 0 0 0 nan nan nan 0 1 1 1 1 1 1 0 0 1 1 1 2 2 3 3 3 3 3 3 2 1 1 1 1 2
nan nan nan nan nan nan 1 2 0 0 nan nan nan nan nan nan nan nan nan nan nan nan nan nan nan 0 0 nan nan nan 0 1 0 0 0 0 0 0 0 0 0 0 0 0 1 1 3 3 1 1 1 1 1 2 2 3 3 3 3 3 3 3 3 3 2 2 3 4 5
nan nan nan 0 0 0 0 1 nan nan nan nan nan nan nan nan nan nan nan 0 nan nan nan nan nan nan nan 0 0 0 0 2 0 0 0 0 0 0 0 0 0 0 0 0 1 1 0 0 1 1 1 1 3 4 4 4 4 4 4 3 3 3 3 4 3 3 5 4 5
1 2 2 1 0 0 0 nan nan nan nan nan nan nan nan nan nan nan nan 0 0 0 0 0 1 0 0 0 0 0 1 2 1 1 1 1 1 1 1 2 5 5 5 5 1 1 2 0 0 0 1 2 7 7 7 6 5 4 4 3 4 4 4 3 1 1 nan 0 1
4 3 3 1 0 0 nan nan nan nan nan nan nan nan nan nan nan 0 0 0 0 0 0 1 1 1 1 0 0 0 0 0 2 2 2 5 7 7 7 5 7 7 7 6 3 3 5 3 3 3 6 10 10 8 8 5 5 3 3 3 4 2 2 0 0 0 nan 0 1
2 1 1 nan nan nan nan nan nan nan nan nan nan nan nan nan nan nan nan nan nan 0 0 0 1 1 1 0 0 0 0 1 2 2 2 7 6 6 6 6 6 5 5 4 5 5 7 6 8 8 14 12 9 3 3 2 2 4 4 3 2 1 1 0 0 0 0 1 1
0 nan nan nan nan nan nan nan nan nan nan nan nan nan nan nan nan nan nan nan 0 0 0 1 2 1 1 0 0 0 1 3 5 5 5 6 5 4 4 4 5 3 3 5 11 11 13 12 11 11 10 5 2 1 1 1 1 2 2 1 1 1 1 1 0 0 0 0 0
nan nan nan nan nan nan nan nan 0 0 0 nan nan 0 0 0 nan 0 0 1 1 2 2 5 5 2 2 1 2 2 3 4 6 5 5 4 5 4 4 4 3 3 3 8 16 16 17 18 16 16 6 1 1 1 1 1 0 0 0 1 1 1 1 1 1 1 0 nan nan
0 0 0 nan nan nan 0 0 0 0 1 1 2 2 2 1 1 2 2 2 4 4 4 3 5 5 5 5 7 7 6 4 4 4 4 5 5 5 5 6 5 7 7 18 19 19 21 20 16 16 9 3 2 2 2 2 1 1 1 1 1 1 1 2 2 2 0 nan nan
1 1 1 1 1 1 1 2 3 3 3 3 3 2 2 2 3 3 3 4 4 4 4 5 5 5 5 5 7 7 7 6 5 5 5 7 5 7 7 6 5 10 10 20 23 23 23 21 17 17 13 6 2 3 3 2 1 3 3 2 2 2 2 2 2 2 1 0 nan
3 5 5 6 6 6 5 5 5 5 4 3 4 2 2 3 4 5 5 4 5 5 5 5 5 5 5 5 5 5 5 5 4 5 5 6 6 7 7 12 15 23 23 26 27 27 22 20 16 16 14 8 2 2 2 2 1 1 1 2 3 2 2 2 1 1 0 nan nan
6 9 9 8 8 8 7 6 6 6 6 6 5 5 5 5 5 5 5 6 5 6 6 6 6 5 5 5 4 4 3 4 5 7 7 11 10 12 12 20 23 27 27 31 28 28 25 19 17 17 13 9 3 2 2 2 1 1 1 1 2 1 1 1 0 0 nan nan nan
10 8 8 9 8 8 7 7 9 9 7 7 7 7 7 7 5 6 6 7 7 7 7 6 6 6 6 5 5 5 5 6 7 9 9 12 17 23 23 23 19 27 27 34 31 31 26 20 15 15 10 7 2 1 1 1 1 0 0 0 0 0 0 nan nan nan nan nan nan
10 9 9 8 7 7 9 9 9 9 8 8 7 7 7 6 6 7 7 8 7 6 6 6 5 6 6 6 7 7 9 8 11 10 10 12 10 6 6 6 7 19 19 30 27 27 23 18 12 12 8 6 2 0 0 0 0 0 0 0 0 0 0 0 0 0 nan nan nan
10 9 9 8 8 8 10 9 8 8 8 9 9 8 8 7 7 7 7 9 7 6 6 6 5 6 6 9 10 10 12 13 9 8 8 6 5 4 4 7 10 19 19 27 22 22 18 14 10 10 8 6 2 0 0 0 0 0 0 0 0 nan nan nan nan nan nan nan nan
9 9 9 7 9 9 10 9 8 8 7 8 8 8 8 8 6 7 7 6 7 6 6 5 6 7 7 7 8 8 6 6 6 5 5 5 6 7 7 7 10 19 19 20 18 18 15 12 11 11 10 8 1 0 0 0 0 nan nan nan nan nan nan nan nan nan nan nan nan
9 7 7 8 8 8 8 7 6 6 6 6 7 6 6 5 4 5 5 5 7 6 6 5 5 3 3 4 4 4 5 5 5 6 6 6 7 7 7 7 9 17 17 16 17 17 15 14 13 13 12 7 1 0 0 nan nan nan nan nan nan nan nan nan nan nan nan nan nan
9 8 8 7 7 7 6 6 6 6 6 5 5 5 5 5 5 5 5 5 6 5 5 5 4 3 3 3 2 2 3 0 4 8 8 7 7 6 6 6 7 17 17 19 19 19 17 16 16 16 11 3 0 nan nan nan nan nan nan nan nan nan nan nan nan nan nan nan nan
8 6 6 7 7 7 6 6 6 6 6 4 3 4 4 4 5 4 4 4 3 4 4 4 4 3 3 2 1 1 3 4 4 6 6 8 5 5 5 5 7 19 19 23 22 22 20 18 15 15 7 0 nan nan nan nan nan nan nan nan nan nan nan nan nan nan nan nan nan
5 6 6 6 5 5 5 5 4 4 3 2 4 4 4 4 4 4 4 3 2 2 2 1 1 1 1 1 0 0 0 1 1 0 0 3 4 4 4 5 7 16 16 23 22 22 19 16 10 10 1 nan nan nan nan nan nan nan nan nan nan nan nan nan nan nan nan nan nan
2 3 3 1 0 0 0 0 nan nan nan 1 4 3 3 2 2 2 2 1 1 0 0 0 0 0 0 0 0 0 nan 0 1 nan nan nan 2 5 5 5 10 14 14 19 19 19 16 10 2 2 nan nan nan nan nan nan nan nan nan nan nan nan nan nan nan nan nan nan nan
2 0 0 nan nan nan nan nan nan nan nan 1 2 2 2 3 2 2 2 1 1 1 1 0 0 0 0 0 nan nan nan nan 0 0 0 nan 4 7 7 8 11 13 13 12 8 8 3 0 nan nan nan nan nan nan nan nan nan nan nan nan nan nan nan nan nan nan nan nan nan
1 nan nan 0 0 0 0 nan nan nan 1 1 0 3 3 3 3 2 2 2 2 1 1 1 1 0 0 0 nan nan nan nan nan nan nan 1 9 14 14 5 1 0 0 1 1 1 0 nan nan nan nan nan nan nan nan nan nan nan nan nan nan nan nan nan nan nan nan nan nan